カタログに戻る

STARLINK-32476

運用中通信VLEO
NORAD 61550·PAYLOAD·🇺🇸 United States

打ち上げ Oct 15, 2024 から Vandenberg Space Force Base

Loading…

次のパス (今後24時間)

TLE

最新Source: CelesTrak SupGP

元期: Sep 14, 2026, 21:30 UTC

1 61550C 24184U   26257.89631944  .00023821  00000+0  70255-3 0  2576
2 61550  53.1580 211.9659 0001618  95.8896 116.0312 15.34433589    15

AllMySatでSTARLINK-32476をリアルタイム追跡

Download on the App Store